カタログに戻る

ORBCOMM FM 27

運用中通信LEO
NORAD 25481·PAYLOAD·🇺🇸 United States

打ち上げ Sep 23, 1998 から Cape Canaveral Space Force Station

Loading…

次のパス (今後24時間)

TLE

最新Source: Space-Track

元期: Sep 14, 2026, 09:15 UTC

1 25481U 98053G   26257.38592725  .00000572  00000-0  22822-3 0  9991
2 25481  45.0046 271.6403 0002921 284.2746  75.7778 14.39275341463082

AllMySatでORBCOMM FM 27をリアルタイム追跡

Download on the App Store